Tracking 25710 objects as of 5-Jul-2022
HD Live streaming from Space Station
objects crossing your sky now

STARLINK-3896

Track STARLINK-3896 now!
10-day predictions
STARLINK-3896 is classified as:


NORAD ID: 52456
Int'l Code: 2022-049F
Perigee: 542.1 km
Apogee: 544.2 km
Inclination: 53.2 °
Period: 95.4 minutes
Semi major axis: 6914 km
RCS: Unknown
Launch date: May 6, 2022
Source: United States (US)
Launch site: AIR FORCE EASTERN TEST RANGE (AFETR)
aabbcc
Your satellite tracking list
Your tracking list is empty




NASA's NSSDC Master Catalog

Two Line Element Set (TLE):
1 52456U 22049F   22185.91667824 -.00716910  00000-0 -46800-1 0  9995
2 52456  53.2173 341.5483 0001516  64.1006 101.9185 15.10046173  1300
Source of the keplerian elements: AFSPC